"Time","Temp","Dewpoint","Humidity","Pressure","Direction","Speed","Gust","Precip","PrecipRate"
"00:04:57","37.4","30.2","75","30.44","335","1.8","4","0.00","0.00"
"00:09:58","37.3","30.1","75","30.44","352","0.9","3.5","0.00","0.00"
"00:14:58","37.3","30.1","75","30.45","346","0.9","3.5","0.00","0.00"
"00:19:56","37.3","30.4","75.9","30.45","343","1.3","3.5","0.00","0.00"
"00:24:58","37.3","30.2","75.4","30.45","337","1","3.5","0.00","0.00"
"00:29:59","37.3","30.3","75.8","30.45","337","0.8","3.5","0.00","0.00"
"00:34:56","37.2","30.3","76","30.45","337","0.8","2.3","0.00","0.00"
"00:39:57","37.2","30.3","76","30.45","337","1.1","3.5","0.00","0.00"
"00:44:59","37.1","30.2","76","30.46","335","0.9","2.3","0.00","0.00"
"00:49:57","37.1","30.2","76","30.46","334","0.7","2.3","0.00","0.00"
"00:54:59","37","30.1","76","30.46","330","1.1","3.5","0.00","0.00"
"00:59:56","36.9","29.9","75.6","30.46","332","0.9","3.5","0.00","0.00"
"01:04:58","36.8","29.8","75.7","30.46","335","1.4","3.5","0.00","0.00"
"01:09:59","36.6","29.7","76","30.46","334","0.9","3","0.00","0.00"
"01:14:56","36.4","29.6","76","30.47","334","1.3","3.5","0.00","0.00"
"01:19:57","36.3","29.5","76.1","30.47","329","1.6","4","0.00","0.00"
"01:24:59","36.2","29.7","77","30.47","334","1","4","0.00","0.00"
"01:29:56","36.2","29.7","77","30.47","333","0.9","3.5","0.00","0.00"
"01:34:59","36.2","29.6","76.8","30.47","348","1.4","5","0.00","0.00"
"01:39:56","36.1","29.6","76.9","30.47","354","1.2","3.5","0.00","0.00"
"01:44:57","36.1","29.6","76.8","30.47","330","1.2","4","0.00","0.00"
"01:49:59","36.1","29.5","76.5","30.47","331","1.3","3.5","0.00","0.00"
"01:54:57","36.1","29.3","76.2","30.47","334","0.4","3","0.00","0.00"
"01:59:58","36.1","29.3","76","30.48","332","1.9","4","0.00","0.00"
"02:04:55","36.1","29.3","76","30.48","332","1","3.5","0.00","0.00"
"02:09:57","36.1","29.5","76.8","30.48","331","1.1","4","0.00","0.00"
"02:14:59","36.1","29.4","76.3","30.48","19","0.9","4","0.00","0.00"
"02:19:57","36","29.2","76","30.48","333","1.4","7","0.00","0.00"
"02:24:56","36","29.2","75.9","30.48","334","0.8","3.5","0.00","0.00"
"02:29:57","36","28.8","75","30.48","352","1.2","6","0.00","0.00"
"02:34:59","36","28.8","75","30.48","348","1.6","5","0.00","0.00"
"02:39:55","36","28.8","75","30.48","336","1.3","5","0.00","0.00"
"02:44:56","36","28.8","75","30.48","357","1.4","6","0.00","0.00"
"02:49:58","36","28.8","75","30.48","4","1.2","4","0.00","0.00"
"02:54:57","35.9","28.7","75","30.48","17","1","3","0.00","0.00"
"02:59:59","35.9","28.7","75","30.49","313","0.6","3.5","0.00","0.00"
"03:04:57","35.9","28.6","74.9","30.49","312","0.5","3.5","0.00","0.00"
"03:09:58","35.9","28.6","74.7","30.49","322","1.3","5","0.00","0.00"
"03:14:59","35.8","28.6","75","30.49","311","0.6","5","0.00","0.00"
"03:19:57","35.8","28.5","74.8","30.49","325","1","4","0.00","0.00"
"03:24:59","35.7","28.5","74.7","30.49","3","0.6","2.3","0.00","0.00"
"03:29:59","35.7","28.4","74.5","30.50","3","0.5","2.3","0.00","0.00"
"03:34:57","35.7","28.4","74.6","30.50","12","0.5","3.5","0.00","0.00"
"03:39:57","35.7","28.5","74.9","30.50","358","0.6","3.5","0.00","0.00"
"03:44:59","35.6","28.3","74.5","30.50","18","1.4","4","0.00","0.00"
"03:49:56","35.5","28","74","30.49","25","0.6","3.5","0.00","0.00"
"03:54:58","35.5","28","74","30.49","349","0.9","3.5","0.00","0.00"
"03:59:58","35.4","27.9","74","30.50","348","0.8","3.5","0.00","0.00"
"04:04:59","35.3","28","74.4","30.50","346","1.4","4","0.00","0.00"
"04:09:56","35.2","28","74.7","30.50","17","0.7","4","0.00","0.00"
"04:14:57","35.1","28","74.8","30.50","59","0.5","3","0.00","0.00"
"04:19:58","35","27.9","75","30.50","12","0.6","3.5","0.00","0.00"
"04:24:59","34.9","27.8","75","30.50","15","0.7","5","0.00","0.00"
"04:29:59","34.9","27.8","75","30.50","7","0.8","3.5","0.00","0.00"
"04:34:59","34.8","27.8","75.5","30.50","350","0.2","3","0.00","0.00"
"04:39:59","34.7","27.8","75.8","30.50","350","1.1","3.5","0.00","0.00"
"04:44:56","34.6","27.8","75.8","30.50","350","0.1","1.2","0.00","0.00"
"04:49:58","34.6","27.8","76","30.50","350","0.1","2","0.00","0.00"
"04:54:59","34.6","27.8","76","30.50","334","0.7","3.5","0.00","0.00"
"04:59:56","34.5","27.7","76","30.50","329","0.4","2","0.00","0.00"
"05:04:57","34.4","27.6","76","30.49","330","0.6","3","0.00","0.00"
"05:09:58","34.4","27.8","76.7","30.49","358","0.9","4","0.00","0.00"
"05:14:58","34.3","27.5","76","30.50","2","0.6","4","0.00","0.00"
"05:19:59","34.2","27.4","76","30.50","43","0.7","3.5","0.00","0.00"
"05:24:56","34.2","27.5","76.3","30.50","42","0.4","2.3","0.00","0.00"
"05:29:59","34.1","27.3","76","30.50","40","0.3","2.3","0.00","0.00"
"05:34:56","34.1","27.4","76.3","30.50","38","0.3","2.3","0.00","0.00"
"05:39:59","34.1","27.4","76.2","30.50","29","1","3.5","0.00","0.00"
"05:44:56","34.1","27.5","76.7","30.51","25","0.5","2.3","0.00","0.00"
"05:49:57","34.1","27.4","76.3","30.51","24","0","2","0.00","0.00"
"05:54:58","34.2","27.6","76.7","30.51","353","1.4","3.5","0.00","0.00"
"05:59:58","34.1","27.5","76.4","30.52","335","0.9","3","0.00","0.00"
"06:04:58","34.2","27.7","77","30.52","355","2.1","5","0.00","0.00"
"06:09:57","34.1","27.6","77","30.52","350","2.1","4","0.00","0.00"
"06:14:58","34.1","27.6","77","30.52","337","0.8","4","0.00","0.00"
"06:19:59","34","27.4","76.5","30.52","338","0.7","3.5","0.00","0.00"
"06:24:56","34","27.2","76","30.52","341","0.4","3.5","0.00","0.00"
"06:29:56","33.9","27.2","76.4","30.52","333","0.8","3.5","0.00","0.00"
"06:34:57","33.9","27.1","76","30.51","301","0.3","3.5","0.00","0.00"
"06:39:57","33.9","27.1","76.1","30.50","300","0.5","2.3","0.00","0.00"
"06:44:57","33.8","27.3","76.6","30.51","300","0.3","2.3","0.00","0.00"
"06:49:58","33.8","27","76","30.51","300","0.4","3.5","0.00","0.00"
"06:54:59","33.8","27","76.2","30.51","300","0.7","3.5","0.00","0.00"
"06:59:59","33.7","27","76.3","30.52","300","0.4","2.3","0.00","0.00"
"07:04:56","33.7","27.3","76.8","30.52","300","0.8","2.3","0.00","0.00"
"07:09:57","33.7","27.3","76.8","30.52","300","0.3","2.3","0.00","0.00"
"07:14:56","33.8","27.4","77","30.52","300","0.2","2.3","0.00","0.00"
"07:19:59","33.8","27.4","77","30.52","300","1.1","3.5","0.00","0.00"
"07:24:59","33.8","27.3","76.7","30.52","300","0.6","3.5","0.00","0.00"
"07:29:57","33.9","27.1","76","30.53","300","0.4","2.3","0.00","0.00"
"07:34:56","33.9","27","75.7","30.53","300","1.4","3.5","0.00","0.00"
"07:39:57","33.9","27.1","75.8","30.53","300","0.1","1.2","0.00","0.00"
"07:44:59","33.9","27.1","76","30.53","300","0.2","2.3","0.00","0.00"
"07:49:56","33.9","27.1","76","30.52","300","0.4","2.3","0.00","0.00"
"07:54:57","33.9","27.1","76","30.52","300","0","1.2","0.00","0.00"
"07:59:58","34","27.2","76","30.52","300","0.6","2.3","0.00","0.00"
"08:04:59","34","27.2","76","30.52","300","1","3.5","0.00","0.00"
"08:09:59","34","27.2","76","30.52","300","0.8","4","0.00","0.00"
"08:14:56","34","27","75.3","30.53","300","1.1","4","0.00","0.00"
"08:19:57","34","27","75.4","30.53","300","0.4","3.5","0.00","0.00"
"08:24:57","34","27.1","75.5","30.53","300","0.4","2.3","0.00","0.00"
"08:29:57","34","27.2","76","30.53","300","0.4","2.3","0.00","0.00"
"08:34:59","34.1","27.2","75.7","30.53","300","0.6","2.3","0.00","0.00"
"08:39:59","34.1","27","75","30.53","300","0.5","2.3","0.00","0.00"
"08:44:56","34.1","27","75","30.53","300","0.6","3.5","0.00","0.00"
"08:49:59","34.1","27.3","75.9","30.52","300","0.6","2.3","0.00","0.00"
"08:54:59","34.2","27.4","76","30.52","302","0.2","2","0.00","0.00"
"08:59:59","34.2","27.4","76","30.52","350","1","4","0.00","0.00"
"09:04:56","34.2","27.5","76.2","30.50","356","0.9","3.5","0.00","0.00"
"09:09:57","34.3","27.4","75.8","30.50","44","0.5","3.5","0.00","0.00"
"09:14:58","34.3","27.4","75.6","30.50","34","0.3","3","0.00","0.00"
"09:19:59","34.4","27.4","75.5","30.50","22","0.3","2.3","0.00","0.00"
"09:24:55","34.4","27.4","75.2","30.50","10","0.7","2.3","0.00","0.00"
"09:29:59","34.5","27.4","75.1","30.50","40","1.1","3.5","0.00","0.00"
"09:34:56","34.5","27.1","74","30.50","353","0.9","3.5","0.00","0.00"
"09:39:59","34.5","27.1","74","30.50","342","0.4","2.3","0.00","0.00"
"09:44:56","34.6","27.2","74","30.50","62","1.5","4","0.00","0.00"
"09:49:57","34.7","27.2","73.7","30.50","72","1.4","3.5","0.00","0.00"
"09:54:58","34.7","27.1","73.4","30.50","7","1","3.5","0.00","0.00"
"09:59:58","34.8","27","73","30.51","333","1.3","3.5","0.00","0.00"
"10:04:58","34.8","26.9","72.6","30.51","28","1.2","3.5","0.00","0.00"
"10:09:59","34.7","26.8","72.5","30.51","45","0.3","3","0.00","0.00"
"10:14:57","34.8","27.6","74.7","30.51","46","0.2","2","0.00","0.00"
"10:19:58","34.8","27.8","75.3","30.51","48","0.2","2","0.00","0.00"
"10:24:59","34.8","28.2","76.6","30.50","51","0.7","2.3","0.00","0.00"
"10:29:57","34.8","28.4","77.5","30.50","345","0.3","2.3","0.00","0.00"
"10:34:58","34.8","29","79","30.50","343","0.5","3.5","0.00","0.00"
"10:39:59","34.8","29.1","79.4","30.49","344","1","3","0.00","0.00"
"10:44:56","34.8","29.2","79.5","30.49","347","0.8","3.5","0.00","0.00"
"10:49:57","34.8","29.5","80.6","30.49","343","1.4","3.5","0.00","0.00"
"10:54:58","34.7","29.3","80.3","30.49","342","0.6","2.3","0.00","0.00"
"10:59:58","34.6","29.4","81","30.49","342","0","1.2","0.00","0.00"
"11:04:58","34.6","29.6","81.5","30.49","338","1","3.5","0.00","0.00"
"11:09:59","34.6","29.9","82.8","30.49","336","0.7","3","0.01","0.01"
"11:14:59","34.5","30","83.6","30.49","336","0.1","2","0.01","0.01"
"11:19:56","34.3","30.1","84.3","30.48","336","0.4","2.3","0.01","0.01"
"11:24:57","34.2","30.2","85.1","30.48","336","0","0","0.02","0.01"
"11:29:56","34","30.3","86","30.48","336","0","1","0.02","0.02"
"11:34:56","33.9","30.3","86.3","30.45","19","0.4","2.3","0.03","0.03"
"11:39:56","33.9","30.4","87.2","30.44","23","0.4","2.3","0.03","0.03"
"11:44:56","33.8","30.5","87.7","30.44","24","0.4","2","0.04","0.04"
"11:49:56","33.8","30.6","88.1","30.44","22","0.4","2.3","0.04","0.04"
"11:54:59","33.9","31.3","90","30.44","22","0.1","2.3","0.04","0.04"
"11:59:59","34","31.1","89","30.44","22","0.2","1.2","0.04","0.04"
"12:04:59","34.2","31.5","89.8","30.43","328","1.3","3.5","0.04","0.04"
"12:09:56","34.2","31.6","89.8","30.43","284","1.3","3.5","0.04","0.04"
"12:14:56","34.3","31.4","89.2","30.43","283","0.1","3","0.04","0.03"
"12:19:56","34.3","31.6","89.4","30.42","283","0.7","3.5","0.04","0.03"
"12:24:56","34.4","31.7","89.6","30.41","303","1.2","3.5","0.04","0.03"
"12:29:58","34.4","31.8","90","30.41","310","0.1","2.3","0.04","0.02"
"12:34:58","34.4","31.6","89.1","30.41","312","0.8","2.3","0.04","0.02"
"12:39:56","34.5","31.5","88.6","30.41","312","0.5","2.3","0.04","0.01"
"12:44:59","34.4","30.8","86.8","30.41","312","0.3","2.3","0.04","0.01"
"12:49:58","34.4","31.1","87.8","30.40","312","0.2","2","0.04","0.00"
"12:54:59","34.4","30.9","87.1","30.39","332","1.2","4","0.04","0.00"
"12:59:58","34.4","31","87.3","30.39","82","1.7","4","0.04","0.00"
"13:04:59","34.5","31","87","30.36","69","2","6","0.04","0.00"
"13:09:56","34.6","30.9","86.5","30.35","72","0.5","5","0.04","0.00"
"13:14:57","34.5","30.7","85.9","30.36","63","0.6","3","0.04","0.00"
"13:19:57","34.4","30.7","86.1","30.36","73","0.9","3.5","0.04","0.00"
"13:24:57","34.4","30.9","86.9","30.36","132","0.7","3.5","0.04","0.00"
"13:29:56","34.4","30.7","86.2","30.37","141","0.1","1.2","0.04","0.00"
"13:34:59","34.4","30.5","85.7","30.37","130","0.9","3.5","0.04","0.00"
"13:39:59","34.4","30.8","86.8","30.37","121","0.6","2.3","0.04","0.00"
"13:44:59","34.4","30.6","86","30.37","121","0.1","1","0.04","0.00"
"13:49:59","34.4","30.6","86","30.36","121","0.1","1.2","0.04","0.00"
"13:54:59","34.4","30.8","86.6","30.36","121","0.2","2.3","0.04","0.00"
"13:59:58","34.5","31.2","87.7","30.36","66","0.9","3","0.04","0.00"
"14:04:58","34.5","31.3","88","30.35","2","1.8","3.5","0.04","0.00"
"14:09:56","34.4","31.2","88","30.35","349","1.1","3","0.04","0.00"
"14:14:59","34.4","31.2","88","30.35","342","0.7","2.3","0.04","0.00"
"14:19:59","34.3","31.1","88","30.35","334","1.4","5","0.04","0.00"
"14:24:58","34.2","31","88","30.35","329","1.8","4","0.04","0.00"
"14:29:56","34.1","30.9","88","30.35","329","0.9","4","0.04","0.00"
"14:34:56","34","30.9","88.4","30.35","335","1.3","3.5","0.04","0.00"
"14:39:58","34","31.1","89","30.35","337","0.9","3.5","0.04","0.00"
"14:44:58","33.9","30.8","88.3","30.35","334","0.9","4","0.04","0.00"
"14:49:58","33.8","30.8","88.5","30.34","339","0.7","3.5","0.04","0.00"
"14:54:58","33.8","31.1","89.6","30.34","339","0.4","2.3","0.04","0.00"
"14:59:57","33.8","31.1","89.5","30.35","335","0.5","2.3","0.05","0.01"
"15:04:57","33.8","31.1","89.8","30.35","336","0.7","3.5","0.05","0.01"
"15:09:57","33.7","31","89.7","30.35","337","0.5","3","0.06","0.02"
"15:14:56","33.6","31","90.1","30.35","337","1.5","4","0.06","0.02"
"15:19:58","33.5","31.2","91","30.34","337","1.9","4","0.06","0.02"
"15:24:58","33.4","31.2","91.6","30.34","336","1","3.5","0.07","0.03"
"15:29:59","33.3","31.2","92","30.34","339","2.2","6","0.07","0.03"
"15:34:58","33.2","31.1","92","30.33","338","1.2","5","0.07","0.03"
"15:39:56","33.2","31.1","92.1","30.32","345","0.8","3.5","0.07","0.03"
"15:44:59","33.2","31.4","93","30.32","321","1.3","3.5","0.08","0.03"
"15:49:58","33.1","31.3","93","30.31","318","0.8","3.5","0.09","0.04"
"15:54:56","33.1","31.3","93","30.31","347","0.8","2.3","0.10","0.05"
"15:59:58","33.1","31.3","93","30.31","37","0.4","3","0.11","0.06"
"16:04:56","33.1","31.3","93","30.30","54","0.3","2.3","0.12","0.07"
"16:09:56","33","31.2","93","30.29","40","0.4","2.3","0.14","0.08"
"16:14:59","33","31.2","93","30.29","325","0.9","3.5","0.15","0.09"
"16:19:59","33","31.5","93.8","30.28","34","0.5","2.3","0.16","0.10"
"16:24:59","33","31.4","93.7","30.27","40","0.7","2.3","0.17","0.11"
"16:29:59","33.1","31.5","93.8","30.28","69","1","3.5","0.18","0.11"
"16:34:59","33.1","31.6","94","30.28","95","0.4","3.5","0.20","0.12"
"16:39:58","33.1","31.6","94","30.28","97","0.3","3","0.21","0.14"
"16:44:59","33.2","31.7","94","30.28","59","0.5","3.5","0.21","0.14"
"16:49:58","33.2","31.7","94","30.27","49","0.6","3.5","0.22","0.14"
"16:54:58","33.2","31.7","94","30.26","45","0.6","2.3","0.22","0.13"
"16:59:58","33.2","31.7","94","30.29","22","1.6","3.5","0.22","0.12"
"17:04:59","33.3","31.8","94","30.29","273","1.5","3.5","0.22","0.11"
"17:09:56","33.3","31.8","94","30.29","264","0.4","3","0.23","0.10"
"17:14:56","33.3","31.8","94","30.29","265","0.7","2.3","0.24","0.09"
"17:19:56","33.3","31.8","94","30.28","265","1.3","3","0.26","0.10"
"17:24:57","33.3","31.8","94","30.28","266","1","3.5","0.28","0.11"
"17:29:56","33.2","31.7","94","30.28","266","0.9","3","0.30","0.11"
"17:34:56","33.2","31.7","94","30.26","266","1.5","3.5","0.31","0.12"
"17:39:55","33.1","31.7","94.7","30.26","289","1.3","3.5","0.33","0.12"
"17:44:56","33","31.5","94","30.27","301","1","2.3","0.34","0.13"
"17:49:56","32.9","31.5","94.4","30.27","301","0.3","3","0.36","0.14"
"17:54:56","32.9","31.4","94.4","30.27","302","1.1","3.5","0.37","0.15"
"17:59:56","32.8","31.4","94.2","30.27","302","0.8","2.3","0.38","0.16"
"18:04:56","32.8","31.5","95","30.25","292","1.4","3.5","0.39","0.16"
"18:09:57","32.8","31.5","95","30.25","284","0.2","3","0.39","0.17"
"18:14:57","32.8","31.5","95","30.25","301","1.4","4","0.39","0.16"
"18:19:58","32.8","31.5","95","30.24","300","0.7","2.3","0.41","0.15"
"18:24:57","32.8","31.5","95","30.24","303","1.1","3.5","0.41","0.15"
"18:29:56","32.8","31.5","95","30.24","303","0.9","2.3","0.42","0.13"
"18:34:59","32.9","31.6","95","30.23","304","0.4","2.3","0.42","0.12"
"18:39:58","32.9","31.6","95","30.23","302","1.8","3.5","0.43","0.11"
"18:44:58","33","31.7","95","30.24","325","2.3","5","0.43","0.10"
"18:49:59","32.9","31.6","95","30.24","313","1.9","4","0.45","0.09"
"18:54:56","32.9","31.6","95","30.24","307","1.7","4","0.45","0.09"
"18:59:59","32.9","31.6","95","30.24","342","2.1","5","0.46","0.09"
"19:04:56","32.9","31.6","95","30.23","320","1.5","3.5","0.47","0.09"
"19:09:57","32.9","31.6","95","30.23","310","1.8","4","0.48","0.09"
"19:14:59","32.9","31.6","95","30.23","304","1.9","4","0.49","0.10"
"19:19:55","32.9","31.6","95","30.23","311","1.9","5","0.50","0.10"
"19:24:56","32.9","31.6","95","30.23","279","1.8","4","0.50","0.09"
"19:29:59","32.9","31.6","95","30.23","296","1.9","4","0.51","0.09"
"19:34:56","33","31.7","95","30.23","301","2.1","5","0.52","0.09"
"19:39:58","33","31.7","95","30.23","297","3.3","6","0.53","0.10"
"19:44:59","33","31.7","95","30.23","306","2.7","10","0.56","0.12"
"19:49:59","33","31.7","95","30.23","312","2.1","6","0.58","0.14"
"19:54:59","33","31.7","95","30.23","337","2.7","5","0.61","0.16"
"19:59:58","33","31.7","95","30.23","346","1","5","0.61","0.16"
"20:04:56","33","31.7","95","30.21","354","1","3.5","0.62","0.15"
"20:09:57","33","31.7","95","30.20","354","0.2","3","0.62","0.15"
"20:14:58","33.1","31.8","95","30.20","355","0.1","1.2","0.62","0.14"
"20:19:59","33.2","32","95.4","30.19","355","0.9","2.3","0.63","0.14"
"20:24:56","33.2","32.1","95.5","30.18","355","0.4","2.3","0.63","0.13"
"20:29:56","33.3","32","95","30.18","355","0.2","1.2","0.63","0.13"
"20:34:58","33.3","32","95","30.18","355","0","1.2","0.64","0.13"
"20:39:58","33.3","32","95","30.17","355","0.5","2.3","0.64","0.12"
"20:44:59","33.4","32.1","95","30.17","355","0.7","2.3","0.65","0.11"
"20:49:55","33.4","32.1","95","30.16","102","1.9","4","0.65","0.09"
"20:54:56","33.4","32.1","95","30.15","100","1.9","3.5","0.65","0.07"
"20:59:59","33.5","32.2","95","30.15","111","2","4","0.65","0.04"
"21:04:56","33.5","32.2","95","30.12","100","1.9","4","0.65","0.04"
"21:09:57","33.5","32.2","95","30.10","107","1.6","4","0.66","0.04"
"21:14:57","33.5","32.2","95","30.10","114","2.9","10","0.67","0.05"
"21:19:58","33.5","32.2","95","30.07","121","5.4","10.4","0.69","0.06"
"21:24:58","33.4","32.1","95.1","30.05","18","3.7","10.4","0.69","0.06"
"21:29:58","33.4","32.4","96","30.07","319","4.3","10.4","0.70","0.07"
"21:34:59","33.5","32.5","96","30.07","270","2.6","5","0.70","0.07"
"21:39:59","33.6","32.6","96","30.07","264","0.3","3.5","0.70","0.06"
"21:44:58","33.6","32.6","96","30.08","300","0","1.2","0.70","0.06"
"21:49:59","33.6","32.6","96","30.08","300","0","0","0.70","0.05"
"21:54:56","33.7","32.7","96","30.08","300","0","1.2","0.70","0.05"
"21:59:57","33.7","32.7","96","30.08","306","0.1","3","0.70","0.05"
"22:04:58","33.8","32.8","96","30.07","316","1.4","4","0.70","0.05"
"22:09:56","33.8","32.8","96","30.07","319","1.2","4","0.70","0.05"
"22:14:58","33.8","32.8","96","30.07","333","2.3","4","0.70","0.04"
"22:19:56","33.8","32.8","96","30.06","336","0.8","3.5","0.70","0.03"
"22:24:58","33.8","32.8","96","30.06","332","0","1.2","0.70","0.01"
"22:29:58","33.8","32.8","96","30.06","332","0","0","0.70","0.01"
"22:34:58","33.8","32.8","96","30.05","332","0","0","0.70","0.00"
"22:39:59","33.9","32.9","96","30.04","332","0","0","0.70","0.00"
"22:44:57","33.9","32.9","96","30.04","29","0","1.2","0.70","0.00"
"22:49:57","34","33","96","30.03","29","0","1.2","0.70","0.00"
"22:54:58","34","33","96","30.03","29","0","0","0.70","0.00"
"22:59:58","34.1","33.1","96","30.03","29","0","0","0.70","0.00"
"23:04:58","34.1","33.1","96","30.03","29","0","0","0.70","0.00"
"23:09:56","34.2","33.2","96","30.03","29","0","0","0.70","0.00"
"23:14:57","34.2","33.2","96","30.03","29","0","0","0.70","0.00"
"23:19:59","34.3","33.3","96","30.03","29","0","0","0.70","0.00"
"23:24:57","34.3","33.3","96","30.03","29","0","0","0.70","0.00"
"23:29:57","34.3","33.3","96","30.03","29","0","0","0.70","0.00"
"23:34:58","34.3","33.3","96","30.02","28","0","0","0.70","0.00"
"23:39:58","34.3","33.3","96","30.01","28","0","0","0.70","0.00"
"23:44:55","34.3","33.3","96","30.01","28","0","0","0.70","0.00"
"23:49:56","34.3","33.3","96","30.01","28","0","0","0.70","0.00"
"23:54:57","34.3","33.3","96","30.01","28","0","0","0.70","0.00"
"23:59:56","34.4","33.4","96","30.01","28","0","0","0.70","0.00"
